Location: Sungai Iga
(3.0345°N, 114.0528°E)
Time: 02:28:54
(UTC+00:00)

Daily predictions for brighter satellites

Satellite Brightness Start Highest point End
(mag) Time Altitude Azimuth Time Altitude Azimuth Time Altitude Azimuth
BLOCK DM-SL R/B 4.1 09:07:23 10° W 09:12:18 74° S 10:03:09 10° E
Cosmos 1680 Rocket 3.5 10:22:32 10° S 10:27:43 66° ESE 10:32:55 10° NNE
COSMO-SKYMED 1 3.9 10:28:01 10° N 10:32:07 43° WNW 10:36:14 10° SSW
NOSS 3-2 (C) 3.5 10:28:16 10° SSW 10:33:34 68° WNW 10:38:56 10° NNE
CENTAUR R/B 2.5 10:28:37 10° SSW 10:33:42 67° WNW 10:39:12 10° NNE
Okean-O 4.2 10:32:51 10° ESE 10:35:13 14° ENE 10:37:35 10° NE
CZ-2C R/B 4.1 10:32:43 10° ENE 10:36:04 17° ESE 10:39:25 10° SE
Okean O Rocket 2.2 10:33:27 10° S 10:37:44 61° WSW 10:42:00 10° NNW
Cosmos 2218 Rocket 4.0 10:35:48 10° N 10:41:56 80° E 10:48:11 10° S
SMAP 4.5 10:39:37 10° S 10:44:02 43° WSW 10:48:25 10° NNW
Cosmos 2297 4.0 10:40:31 10° N 10:45:53 43° ENE 10:51:16 10° SE
Cosmos 2366 rocket 3.9 10:40:03 10° N 10:46:10 83° E 10:52:19 10° S
Hubble Space Telescope 3.2 10:45:14 10° NW 10:46:48 12° NNW 10:48:21 10° N
Cosmos 2112 Rocket 4.0 10:42:18 10° SSW 10:47:31 88° W 10:52:46 10° NNE
ARIANE 5 DEB (SYLDA) 3.4 10:45:40 10° WSW 10:47:43 28° S 10:50:35 10° ESE
GPS 2-14 Rocket1 4.2 10:45:57 10° WNW 10:49:04 24° NNW 10:52:07 11° NE
Helios 1A Rocket 4.2 10:46:40 10° SE 10:49:36 19° ENE 10:52:30 10° NNE
MOS 1 Rocket 3.7 10:45:00 10° N 10:50:19 82° W 10:55:25 10° SSW
Cosmos 1933 Rocket 4.0 10:48:14 10° NNE 10:52:24 40° E 10:56:32 10° SSE
CZ-4 R/B 1.9 11:01:01 10° SE 11:04:31 34° ENE 11:08:02 10° NNE
Lacrosse 4 Rocket 2.8 11:01:16 10° SW 11:04:58 35° WNW 11:08:40 10° N
SOZ 4.3 11:01:20 10° SW 11:05:01 88° WNW 11:06:02 28° NE
Cosmos 1939 Rocket 3.1 11:03:11 10° S 11:07:01 67° W 11:10:49 10° NNW
CZ-2C R/B 3.1 11:09:27 10° SSE 11:14:46 55° ENE 11:19:47 10° N
Ariane H10 4.5 01:57:20 10° W 11:14:51 86° N 11:18:31 23° E
Cosmos 1238 Rocket 4.0 11:10:47 10° NNE 11:15:34 41° E 11:21:09 10° SSE
CSL-04 Rocket 4.5 11:14:21 10° SE 11:18:53 27° ENE 11:19:23 27° ENE
Meteosat 1 Rocket2 3.6 11:17:34 10° NW 11:22:34 38° NNE 11:23:24 34° NE
Cosmos 1869 Rocket 4.1 11:26:43 37° E 11:26:43 37° E 11:30:44 10° SSE
YAOGAN 1 2.4 11:26:11 10° SSE 11:30:29 71° ENE 11:34:47 10° N
Meteor 1-27 Rocket 4.3 11:26:45 10° SSW 11:32:10 56° W 11:37:32 10° N
Cosmos 1500 3.2 11:28:56 10° N 11:32:45 80° W 11:36:37 10° S
BREEZE-M DEB (TANK) 4.4 11:21:33 10° SW 11:34:14 62° WNW 11:36:30 28° NNE
Cosmos 1934 Rocket 4.3 11:33:09 31° NE 11:35:23 41° E 11:41:09 10° SSE
SWIFT 4.4 11:32:55 10° NW 11:35:26 15° NNW 11:35:49 15° N
Ariane H10 2.5 11:36:05 10° WNW 11:39:00 57° N 11:40:31 41° ENE
GPS 2-18 Rocket1 2.8 11:35:59 10° WNW 11:39:33 85° WSW 11:39:33 85° WSW
OAO 3 Rocket 3.7 11:35:11 10° SSW 11:39:47 42° SE 11:40:23 40° ESE
H-2A R/B 2.0 11:37:55 10° SSE 11:43:20 69° ENE 11:47:56 14° N
ARGOS 3.5 11:40:27 10° SSE 11:44:45 43° ESE 11:44:45 43° ESE
Cosmos 1241 Rocket 4.4 11:39:51 10° NNW 11:46:22 72° ENE 11:52:47 10° SSE
Cosmos 1821 Rocket 4.2 11:40:40 10° N 11:46:57 73° W 11:53:20 10° S
USA 281 3.2 11:41:46 10° SE 11:48:07 53° ENE 11:54:27 10° N
Meteor 1-5 Rocket 4.2 11:43:10 10° N 11:48:51 80° W 11:54:22 10° S
SJ-11-01 4.2 11:47:54 10° SSE 11:52:35 89° SW 11:54:06 44° NNW
Cosmos 44 3.8 11:48:29 10° NNW 11:53:49 66° WSW 11:59:02 10° SSE
